Weather History for Seattle Boeing, WA

Change the Weather History Date:

Thursday, February 7, 2013

  Actual Average Record
Temperature  
Mean Temperature 46 °F -  
Max Temperature 50 °F 50 °F 66 °F (1963)
Min Temperature 39 °F 36 °F 20 °F (1989)
Degree Days  
Heating Degree Days 19    
Moisture  
Dew Point 35 °F    
Average Humidity 66    
Maximum Humidity 82    
Minimum Humidity 46    
Precipitation  
Precipitation 0.09 in - - ()
Sea Level Pressure  
Sea Level Pressure 30.02 in    
Wind  
Wind Speed 7 mph (SSW)    
Max Wind Speed 20 mph    
Max Gust Speed 28 mph    
Visibility 10 miles    
Events Rain    
Averages and records for this station are not official NWS values.
T = Trace of Precipitation, MM = Missing Value Source: NWS Daily Summary

Daily Weather History Graph

Daily Weather History Graph

Search for Another Location

Airport:

Trip Planner

Search our weather history database for the weather conditions in past years. The results will help you decide how hot, cold, wet, or windy it might be!

Date:

Astronomy

Feb. 07, 2013 Rise Set
Actual Time 7:26 AM PST 5:20 PM PST
Civil Twilight 6:54 AM PST 5:53 PM PST
Nautical Twilight 6:17 AM PST 6:29 PM PST
Astronomical Twilight 5:42 AM PST 7:05 PM PST
Moon 5:17 AM PST (2/7) 2:45 PM PST (2/7)
Length of Visible Light 10h 58m
Length of Day
9h 53m
Waning Crescent, 8% of the Moon is Illuminated
Feb 7
Waning Crescent
Feb 9
New
Feb 17
First Quarter
Feb 25
Full
Mar 4
Last Quarter

Hourly Weather History & Observations

Time (PST) Temp. Windchill Dew Point Humidity Pressure Visibility Wind Dir Wind Speed Gust Speed Precip Events Conditions
12:53 AM 48.0 °F - 37.9 °F 68% 29.83 in 10.0 mi SW 6.9 mph - 0.02 in Rain Light Rain
1:53 AM 46.0 °F 42.5 °F 37.9 °F 73% 29.86 in 10.0 mi South 6.9 mph - 0.07 in Rain Light Rain
2:53 AM 45.0 °F 38.9 °F 37.0 °F 74% 29.89 in 10.0 mi SSE 12.7 mph - N/A   Overcast
3:53 AM 45.0 °F 37.1 °F 35.1 °F 68% 29.90 in 10.0 mi South 19.6 mph 27.6 mph 0.00 in   Overcast
4:53 AM 45.0 °F 39.3 °F 35.1 °F 68% 29.93 in 10.0 mi South 11.5 mph 19.6 mph N/A   Overcast
5:53 AM 45.0 °F 39.7 °F 35.1 °F 68% 29.95 in 10.0 mi South 10.4 mph 18.4 mph N/A   Mostly Cloudy
6:53 AM 44.1 °F 40.1 °F 35.1 °F 71% 29.96 in 10.0 mi South 6.9 mph - N/A   Mostly Cloudy
7:53 AM 44.1 °F 39.5 °F 36.0 °F 73% 29.99 in 10.0 mi SSE 8.1 mph - N/A   Mostly Cloudy
8:53 AM 44.1 °F 38.6 °F 36.0 °F 73% 30.01 in 10.0 mi SSE 10.4 mph - N/A   Mostly Cloudy
9:53 AM 45.0 °F 39.7 °F 36.0 °F 71% 30.02 in 10.0 mi SSE 10.4 mph - N/A   Mostly Cloudy
10:53 AM 46.9 °F - 36.0 °F 66% 30.04 in 10.0 mi SW 8.1 mph - N/A   Mostly Cloudy
11:53 AM 48.0 °F - 35.1 °F 61% 30.04 in 10.0 mi SW 9.2 mph - N/A   Mostly Cloudy
12:53 PM 48.9 °F - 34.0 °F 56% 30.03 in 10.0 mi Variable 4.6 mph - N/A   Clear
1:53 PM 48.9 °F - 33.1 °F 54% 30.03 in 10.0 mi SSW 5.8 mph - N/A   Scattered Clouds
2:53 PM 50.0 °F - 32.0 °F 50% 30.04 in 10.0 mi Calm Calm - N/A   Clear
3:53 PM 50.0 °F - 30.0 °F 46% 30.04 in 10.0 mi Variable 5.8 mph - N/A   Mostly Cloudy
4:53 PM 48.9 °F - 32.0 °F 52% 30.06 in 10.0 mi NW 4.6 mph - N/A   Scattered Clouds
5:53 PM 46.9 °F - 32.0 °F 56% 30.08 in 10.0 mi NW 3.5 mph - N/A   Clear
6:53 PM 45.0 °F - 33.1 °F 63% 30.10 in 10.0 mi Calm Calm - N/A   Clear
7:53 PM 44.1 °F - 34.0 °F 68% 30.12 in 10.0 mi Calm Calm - N/A   Clear
8:53 PM 43.0 °F - 35.1 °F 74% 30.14 in 10.0 mi Calm Calm - N/A   Clear
9:53 PM 43.0 °F - 36.0 °F 76% 30.16 in 10.0 mi Calm Calm - N/A   Clear
10:53 PM 42.1 °F - 35.1 °F 76% 30.18 in 10.0 mi Calm Calm - N/A   Clear
11:53 PM 39.0 °F - 34.0 °F 82% 30.19 in 10.0 mi Calm Calm - N/A   Clear